Powrót do katalogu

THORAD AGENA D DEB

AktywnyPO
NORAD 4867·DEBRIS·🇺🇸 United States

Wystrzelony Apr 8, 1970 z Vandenberg Space Force Base

Loading…

Następne Przeloty

TLE

Source: Space-Track
1 04867U 70025EX  26218.82265476  .00000118  00000-0  10346-3 0  9995
2 04867  99.6343 165.3796 0124024 338.1761  21.4146 14.01816101861837

Śledź THORAD AGENA D DEB w czasie rzeczywistym z AllMySat

Download on the App Store